Flag for Kazakhstan Weather past 2 weeks in Aqtobe, Kazakhstan

23 °F

Ice fog.

Feels Like: 18 °F
Forecast: 24 / 34 °F
Wind: 3 mph from South

Location: Aktjubinsk

Current Time: Dec 1, 2015 at 10:49:16 AM

Latest Report: Dec 1, 2015 at 9:30 AM

Visibility: 0 mi

Pressure: 30.15 "Hg

Humidity: 93%

Dew point: 21 °F

Location of AqtobeLocation

Historic Weather in Aqtobe — Graph


Aqtobe temperature yesterday

Maximum temperature yesterday: 32 °F (at 2:00 PM)
Minimum temperature yesterday: 12 °F (at 7:00 AM)
Average temperature yesterday: 21 °F

Past Weeks' High & Low Weather Summary

High36 °F (Nov 24, 3:00 PM)100% (Nov 21, 10:00 PM)30.42 "Hg (Nov 21, 10:00 PM)
Low-6 °F (Nov 20, 11:30 PM)69% (Nov 30, 2:00 PM)29.77 "Hg (Nov 27, 1:30 PM)
Average22 °F90%30.17 "Hg
* Reported Nov 16 8:00 AM — Dec 1 8:30 AM, Aqtobe, Weather by CustomWeather, © 2015

Note: Actual official high and low records may vary slightly from our data, if they occured in-between our weather recording intervals... More about our weather records


Aqtobe weather history for previous 24 hours

Time TempWeatherWind HumidityBarometerVisibility
8:30 AM
Tue, Dec 1
21 °FIce fog.3 mph100%30.15 "Hg1 mi
8:00 AM21 °FIce fog.3 mph93%30.15 "Hg1 mi
7:30 AM19 °FIce fog.3 mph100%30.15 "Hg1 mi
7:00 AM19 °FLow clouds.1 mph100%30.15 "Hg6 mi
5:30 AM19 °FIce fog.3 mph100%30.18 "Hg1 mi
5:00 AM19 °FIce fog.3 mph100%30.18 "Hg2 mi
4:30 AM19 °FIce fog.1 mph100%30.18 "Hg1 mi
4:00 AM19 °FIce fog.6 mph100%30.18 "Hg1 mi
3:30 AM19 °FIce fog.6 mph100%30.18 "Hg0 mi
3:00 AM19 °FIce fog.8 mph100%30.18 "Hg1 mi
2:30 AM19 °FIce fog.8 mph100%30.18 "Hg0 mi
2:00 AM19 °FIce fog.8 mph100%30.18 "Hg1 mi
1:30 AM19 °FIce fog.8 mph100%30.21 "Hg0 mi
1:00 AM19 °FPassing clouds.6 mph93%30.21 "HgN/A
12:30 AM18 °FClear.6 mph93%30.21 "Hg10 mi
12:00 AM19 °FClear.6 mph86%30.21 "Hg10 mi
11:30 PM
Mon, Nov 30
21 °FClear.6 mph80%30.21 "Hg10 mi
11:00 PM19 °FClear.8 mph86%30.21 "Hg10 mi
10:30 PM21 °FClear.6 mph80%30.21 "Hg10 mi
10:00 PM21 °FClear.3 mph80%30.21 "Hg10 mi
9:30 PM23 °FPassing clouds.3 mph74%30.21 "HgN/A
9:00 PM21 °FClear.3 mph80%30.21 "Hg10 mi
8:30 PM21 °FClear.1 mph80%30.21 "Hg10 mi
8:00 PM25 °FClear.3 mph80%30.21 "Hg10 mi
7:30 PM19 °FClear.6 mph93%30.21 "Hg10 mi
7:00 PM25 °FClear.1 mph80%30.21 "Hg10 mi
6:30 PM25 °FClear.3 mph86%30.21 "Hg10 mi
6:00 PM28 °FClear.3 mph80%30.21 "Hg10 mi
5:30 PM30 °FClear.6 mph75%30.21 "Hg10 mi
5:00 PM30 °FSunny.1 mph75%30.21 "Hg10 mi
4:30 PM30 °FSunny.6 mph75%30.21 "Hg10 mi
4:00 PM32 °FSunny.6 mph75%30.24 "Hg10 mi
3:30 PM32 °FSunny.6 mph75%30.24 "Hg10 mi
3:00 PM32 °FSunny.3 mph69%30.24 "Hg10 mi
2:30 PM32 °FSunny.6 mph69%30.24 "Hg10 mi
2:00 PM32 °FSunny.6 mph69%30.27 "Hg10 mi
1:30 PM30 °FSunny.3 mph75%30.27 "Hg10 mi
11:30 AM23 °FClear.3 mph86%30.30 "Hg3 mi
10:30 AM19 °FClear.6 mph93%30.30 "Hg3 mi
10:00 AM18 °FClear.3 mph93%30.30 "Hg4 mi
Weather by CustomWeather, © 2015

See weather overviewHow to use our weather pages